Back to catalog

ALEXIS

AliveScienceLEO
NORAD 22638·PAYLOAD·🇺🇸 United States

Launched Apr 25, 1993 from Vandenberg Space Force Base

Loading…

Next Passes (next 24 hours)

TLE

FreshSource: Space-Track

Epoch: Sep 14, 2026, 00:04 UTC

1 22638U 93026A   26257.00324714  .00000046  00000-0  37093-4 0  9990
2 22638  69.9190  93.7511 0057609  34.2400 326.2418 14.33690969122891

Track ALEXIS in real time with AllMySat

Download on the App Store